Location: Bathurst
(33.4193°S, 149.5775°E)
Time: 02:12:15
(UTC+10:00)

A-11 Canister half - Pass Details

Date: 22 June 2021
Orbit: 1513 x 1687 km, 47.2° (Epoch: 28 July)

Event Time Altitude Azimuth Distance (km) Brightness Sun altitude
Rises 19:23:50 0° 245° (WSW) 4,740 12.3 -28.8°
Reaches altitude 10° 19:27:14 10° 236° (SW) 3,781 11.6 -29.5°
Maximum altitude 19:36:02 38° 170° (S) 2,308 9.7 -31.3°
Enters shadow 19:36:51 37° 160° (SSE) 2,330 9.6 -31.4°
